Wind_Speed
25 23 22 21 19 18 16 14 12 11 10 8 6 4 3 4 5 5 6 6 8 9 11 12 13 13 12 12 11 10 10 10 9 8 6 5 3 3 1 1 1 1 2 2
26 25 24 23 22 21 19 16 14 13 13 11 9 7 5 4 4 4 4 5 5 8 10 11 12 12 11 11 11 10 10 10 10 8 7 5 3 3 2 1 2 2 2 3
27 26 26 25 23 22 20 18 17 16 15 14 12 10 8 7 5 4 3 4 4 5 7 9 10 11 12 11 10 10 9 9 9 8 7 5 4 3 3 2 3 4 3 3
29 28 27 26 25 23 22 20 19 19 18 17 15 13 10 9 6 5 4 4 5 5 6 7 8 10 11 11 11 10 9 9 8 8 8 7 6 5 4 4 4 5 4 4
30 29 28 26 25 24 23 22 21 20 20 19 18 15 12 10 7 5 4 5 6 7 7 8 8 10 10 11 10 10 10 10 8 8 8 8 7 6 6 6 7 6 5 5
31 30 29 27 26 25 25 24 23 22 21 21 19 17 13 11 8 7 7 7 6 7 8 9 10 10 10 10 10 10 9 9 9 8 8 8 8 7 7 8 7 7 6 6
32 31 30 29 28 27 27 26 25 25 24 22 19 18 14 12 10 9 8 7 7 8 9 9 10 10 10 11 10 10 9 9 9 9 8 8 8 8 9 8 8 7 7 7
33 32 31 30 29 27 27 27 27 26 25 23 21 19 16 14 12 11 10 9 8 8 10 10 10 11 11 12 11 10 10 9 9 9 9 9 9 9 9 8 8 7 8 8
34 33 31 30 30 29 28 28 28 28 27 25 23 20 18 16 14 12 11 10 9 10 10 10 11 11 12 12 12 11 10 10 9 9 9 9 9 9 9 9 9 9 10 10
35 34 33 32 32 31 30 29 30 30 29 28 25 22 20 18 16 13 12 11 11 11 11 12 12 12 13 12 12 12 10 10 10 10 10 10 10 10 10 10 10 10 11 11
36 35 34 33 33 32 31 31 30 30 30 29 26 23 21 19 18 15 13 12 12 11 12 12 12 13 13 13 14 13 12 11 11 11 11 12 12 11 11 11 12 12 12 11
35 35 34 34 33 32 32 31 31 30 30 29 27 25 23 21 19 17 15 14 12 13 13 13 13 13 13 14 14 14 14 13 12 12 12 13 13 13 13 14 14 14 13 12
35 35 34 34 34 33 32 31 31 31 30 29 27 24 23 22 21 19 18 16 15 15 14 14 14 14 14 14 14 15 15 13 12 13 13 14 14 15 15 16 15 15 15 14
36 35 34 33 32 31 31 31 31 31 30 29 26 24 24 23 22 21 20 18 16 15 15 15 15 15 15 14 15 15 14 13 13 14 14 15 15 16 17 17 16 16 16 16
36 35 33 31 31 31 31 30 30 30 28 28 25 24 23 23 23 22 20 18 17 16 16 16 15 15 15 15 15 15 14 14 14 14 15 16 17 17 17 17 17 18 18 18
35 34 33 32 31 31 31 31 30 30 29 27 26 24 23 24 23 22 21 20 19 18 17 16 15 15 16 16 15 15 15 15 15 15 16 17 17 17 17 17 17 18 18 18
35 34 33 32 31 32 33 31 31 30 29 28 26 24 24 24 24 23 22 21 20 19 17 15 16 17 17 16 16 15 15 15 16 15 16 16 16 16 16 16 16 17 17 16
34 33 33 32 32 34 32 31 31 30 29 28 26 24 24 24 24 23 22 21 20 18 17 17 17 18 18 16 15 15 15 15 15 15 16 16 16 16 16 16 16 16 17 16
33 33 33 33 33 33 32 31 30 30 29 27 26 25 24 24 24 24 23 22 20 19 18 17 17 17 16 15 15 15 16 16 15 15 16 16 17 16 16 16 15 15 15 15
33 33 33 33 34 34 32 31 30 29 28 26 25 24 23 23 23 22 23 22 21 20 18 18 17 15 15 15 15 15 15 15 16 17 17 17 16 16 16 15 14 14 15 15
32 33 33 34 34 33 32 31 30 30 27 25 25 24 23 22 22 21 22 22 21 19 19 18 17 16 16 16 16 16 16 16 16 17 17 17 16 16 15 14 13 14 14 14
32 33 33 33 33 32 31 30 30 29 27 26 25 25 24 23 23 23 22 21 21 20 19 18 18 18 18 17 17 16 16 17 17 17 17 17 16 15 14 13 14 14 14 14
32 33 33 33 32 31 29 29 28 28 28 26 26 26 25 25 24 23 22 21 21 21 21 20 19 18 18 18 17 17 17 17 17 17 17 17 15 14 14 14 14 15 15 15
33 32 32 32 32 31 30 29 28 27 28 27 26 25 25 25 24 24 23 22 21 21 21 20 20 19 19 19 18 18 18 17 17 16 16 16 15 15 14 14 15 15 15 15
34 33 32 32 31 30 29 29 28 28 28 28 27 26 26 26 24 24 23 22 21 21 20 20 20 21 20 20 19 18 18 17 17 16 16 16 16 16 16 16 16 16 16 16
34 33 33 32 31 31 30 29 28 29 28 28 27 27 27 26 25 24 23 23 22 22 21 21 20 21 21 20 19 18 18 17 17 17 16 16 16 16 16 16 16 16 16 17
Wind_Direction
218 218 220 224 226 229 233 238 240 243 248 254 270 286 315 340 351 356 7 15 19 19 17 16 16 16 17 19 20 22 20 21 23 23 22 26 31 33 35 10 322 280 257 239
219 218 220 223 225 229 232 237 240 244 250 257 267 270 276 296 317 335 352 6 14 18 16 11 9 10 11 12 13 14 13 17 22 25 19 17 12 2 357 345 324 304 283 267
221 220 222 224 226 229 233 236 239 241 248 257 263 265 270 274 281 298 325 337 344 2 4 1 359 358 359 360 2 1 6 13 15 13 8 0 354 346 339 321 321 319 302 274
220 221 222 225 227 230 233 235 236 239 245 253 259 262 264 263 265 279 292 310 315 331 345 350 353 349 348 351 352 348 355 358 3 3 1 360 351 338 322 310 305 307 307 291
221 222 223 225 227 229 231 233 234 237 242 249 255 260 260 258 261 267 281 295 300 312 321 331 337 336 338 344 344 340 347 349 351 352 356 355 349 333 322 314 306 303 309 304
221 222 224 224 225 227 228 231 234 237 241 246 253 259 260 259 262 261 268 278 290 304 310 317 322 321 323 332 337 339 336 340 340 338 338 343 341 334 325 321 316 309 303 300
222 223 224 224 225 226 228 230 233 237 240 246 250 256 259 257 258 260 270 272 281 292 294 306 311 308 311 318 327 331 329 327 328 329 330 330 332 331 329 325 319 312 305 299
223 224 224 224 226 229 230 232 235 238 241 245 248 253 256 258 259 261 267 269 277 286 289 294 297 303 301 307 316 324 322 320 321 323 322 319 319 322 322 323 326 320 313 306
223 225 225 225 227 229 231 232 235 239 242 244 247 252 254 257 260 262 262 266 273 281 285 287 293 298 301 305 309 311 312 311 310 313 315 313 315 315 315 312 312 312 311 309
223 224 225 226 228 229 231 232 234 238 241 243 247 250 252 255 256 256 255 263 271 274 280 282 283 290 296 298 297 298 300 303 304 305 310 313 310 307 306 305 304 305 310 310
223 224 225 226 228 230 231 232 234 238 242 244 247 248 250 252 252 250 254 262 266 274 281 284 286 289 291 293 295 297 295 294 298 299 302 303 300 298 299 301 302 303 306 309
222 224 225 226 228 229 231 233 236 238 242 245 247 247 247 249 249 251 253 258 267 276 283 286 286 287 290 293 293 294 294 289 289 292 295 298 295 294 296 296 298 299 301 302
221 223 223 224 226 228 230 231 234 237 241 244 245 244 243 244 246 250 254 260 269 274 280 287 289 289 292 292 291 292 292 289 289 290 291 295 296 294 293 292 295 295 296 296
220 222 223 225 227 229 231 232 234 237 240 243 244 243 241 244 244 248 251 257 266 273 280 283 288 292 292 292 291 291 291 290 288 288 290 293 293 292 292 290 290 291 292 291
220 221 221 222 224 228 231 232 234 237 240 243 244 243 240 243 245 246 249 255 263 271 277 282 287 293 293 294 294 293 293 294 292 292 293 293 294 294 290 289 288 288 288 288
220 221 221 223 224 227 230 232 234 237 239 241 242 241 240 241 245 246 249 255 263 268 277 280 284 289 293 294 294 292 292 292 292 293 295 295 293 292 291 290 289 288 288 288
220 221 222 223 224 228 230 231 233 236 238 240 242 241 240 240 242 244 249 256 261 268 277 282 285 288 291 293 292 288 288 290 290 292 296 293 292 292 294 291 291 291 289 289
222 223 224 224 225 229 231 232 234 237 239 242 243 242 239 240 241 242 248 255 261 267 275 281 284 287 289 291 293 290 288 289 292 292 295 293 292 292 292 291 294 293 289 287
222 223 224 225 227 230 230 232 235 237 239 241 243 241 239 239 240 243 249 257 262 267 275 281 284 286 286 289 292 292 290 289 290 291 294 296 294 293 294 294 292 293 294 290
222 223 225 227 229 232 232 233 235 238 240 240 240 239 238 237 240 244 249 255 262 268 272 277 283 284 286 288 290 291 292 289 289 290 291 293 295 297 296 297 295 295 295 292
223 224 226 229 231 233 234 235 236 238 239 238 237 236 235 237 242 246 249 252 258 264 269 274 280 285 286 287 289 289 289 291 291 290 290 291 296 300 298 297 298 296 295 295
224 225 226 228 231 233 234 235 235 237 238 237 235 234 236 239 241 245 248 250 253 260 267 271 278 284 285 287 290 290 291 291 293 291 290 291 293 294 295 295 296 296 295 294
225 225 227 229 230 232 234 234 236 237 236 236 235 235 237 240 242 246 248 249 252 257 265 269 275 280 283 285 288 288 289 290 291 292 291 293 291 289 290 292 294 295 297 295
225 226 227 228 229 230 232 234 235 235 236 236 234 234 235 237 241 244 246 247 251 255 260 266 272 276 278 280 281 284 286 289 290 290 289 290 288 287 289 292 293 295 296 296
225 226 227 229 230 231 231 233 234 233 235 236 234 234 236 237 241 243 245 245 249 254 259 264 270 273 273 274 277 281 282 282 286 286 286 287 286 286 287 289 291 293 294 298
226 227 228 230 231 231 231 233 232 232 234 235 235 235 237 239 242 243 246 246 249 254 258 264 267 271 274 273 274 278 281 281 281 284 286 286 287 288 287 289 290 293 295 296
Height
5902 5906 5908 5911 5913 5916 5917 5920 5922 5923 5924 5926 5927 5928 5928 5928 5929 5929 5928 5928 5927 5926 5925 5923 5922 5920 5919 5917 5916 5914 5913 5911 5909 5908 5907 5907 5906 5906 5905 5905 5905 5905 5905 5905
5899 5902 5906 5907 5910 5913 5915 5918 5920 5921 5922 5924 5925 5926 5927 5927 5928 5929 5928 5927 5927 5926 5925 5924 5923 5921 5920 5918 5917 5915 5914 5912 5910 5909 5908 5907 5907 5906 5906 5905 5905 5904 5904 5904
5895 5900 5901 5904 5907 5910 5913 5916 5918 5920 5920 5922 5924 5925 5926 5927 5927 5928 5928 5927 5927 5926 5925 5924 5923 5922 5920 5919 5917 5916 5914 5913 5912 5910 5909 5908 5907 5906 5906 5905 5904 5904 5904 5903
5890 5894 5897 5901 5904 5907 5910 5913 5915 5917 5918 5920 5922 5923 5925 5925 5926 5926 5927 5927 5926 5925 5924 5923 5922 5921 5919 5918 5917 5916 5914 5912 5911 5910 5909 5908 5907 5906 5905 5904 5904 5903 5903 5902
5886 5890 5893 5897 5901 5904 5907 5909 5912 5914 5915 5917 5919 5921 5923 5924 5924 5925 5926 5926 5925 5924 5923 5922 5922 5920 5919 5917 5916 5915 5914 5912 5910 5910 5909 5908 5907 5906 5905 5904 5903 5902 5901 5901
5881 5885 5889 5893 5897 5900 5903 5906 5908 5910 5912 5914 5916 5918 5920 5922 5923 5924 5924 5924 5924 5923 5922 5922 5921 5920 5918 5916 5915 5914 5913 5912 5911 5910 5908 5907 5906 5905 5904 5903 5902 5901 5900 5900
5875 5880 5884 5888 5892 5895 5898 5902 5904 5906 5908 5911 5914 5915 5918 5920 5921 5921 5922 5922 5922 5922 5921 5920 5920 5919 5917 5915 5914 5913 5912 5911 5910 5909 5907 5907 5905 5904 5903 5902 5901 5900 5899 5898
5870 5875 5880 5884 5887 5891 5894 5898 5901 5903 5905 5908 5910 5911 5915 5917 5918 5919 5919 5920 5920 5920 5919 5919 5918 5917 5916 5915 5913 5912 5911 5910 5909 5908 5906 5905 5904 5903 5902 5901 5900 5898 5897 5897
5865 5871 5875 5879 5883 5886 5889 5892 5896 5899 5901 5904 5906 5909 5911 5913 5915 5916 5917 5917 5918 5918 5917 5917 5916 5915 5914 5913 5912 5911 5910 5909 5907 5906 5905 5904 5903 5902 5901 5900 5898 5897 5895 5894
5859 5864 5869 5873 5877 5880 5884 5888 5891 5893 5896 5899 5902 5905 5908 5910 5911 5913 5914 5915 5915 5915 5915 5914 5913 5912 5912 5911 5910 5908 5907 5906 5905 5904 5903 5902 5901 5900 5899 5898 5897 5895 5894 5892
5852 5858 5863 5867 5870 5875 5879 5882 5885 5889 5892 5895 5898 5903 5904 5906 5908 5910 5911 5912 5912 5912 5911 5911 5910 5910 5909 5908 5907 5906 5905 5903 5903 5902 5901 5900 5899 5898 5897 5896 5895 5894 5892 5891
5846 5851 5856 5861 5866 5869 5873 5877 5881 5885 5887 5890 5894 5900 5900 5902 5904 5906 5908 5908 5909 5909 5908 5908 5907 5907 5906 5905 5905 5904 5903 5901 5900 5899 5898 5897 5896 5895 5894 5894 5892 5891 5890 5888
5840 5845 5850 5855 5860 5864 5867 5871 5875 5879 5882 5885 5889 5895 5896 5898 5900 5902 5904 5905 5905 5906 5906 5905 5904 5903 5903 5902 5901 5901 5899 5898 5897 5896 5896 5895 5893 5892 5891 5891 5889 5888 5887 5886
5834 5839 5846 5851 5855 5859 5863 5867 5870 5873 5876 5880 5884 5888 5891 5893 5896 5898 5900 5901 5902 5902 5902 5902 5901 5901 5900 5899 5898 5897 5896 5895 5894 5893 5892 5892 5890 5889 5888 5887 5886 5885 5884 5882
5828 5834 5839 5845 5850 5854 5857 5861 5865 5868 5872 5875 5879 5883 5886 5888 5891 5893 5895 5897 5898 5899 5899 5898 5898 5897 5896 5896 5895 5894 5893 5892 5891 5890 5889 5888 5887 5885 5883 5883 5882 5881 5879 5878
5823 5829 5834 5839 5844 5848 5851 5856 5859 5863 5866 5870 5874 5878 5881 5883 5886 5888 5891 5893 5894 5895 5895 5895 5895 5894 5893 5892 5891 5890 5889 5888 5887 5886 5885 5883 5882 5880 5879 5877 5877 5876 5875 5873
5818 5824 5829 5834 5838 5841 5845 5850 5854 5858 5861 5865 5869 5874 5876 5879 5881 5884 5886 5888 5890 5890 5891 5891 5891 5890 5889 5889 5888 5887 5886 5884 5883 5882 5881 5879 5877 5876 5875 5874 5873 5871 5870 5869
5814 5819 5824 5829 5833 5836 5843 5845 5849 5852 5856 5860 5864 5868 5871 5874 5876 5879 5881 5883 5885 5886 5887 5887 5886 5886 5885 5884 5883 5882 5882 5880 5879 5878 5877 5875 5873 5872 5871 5870 5869 5867 5866 5865
5809 5814 5818 5823 5826 5831 5836 5840 5843 5847 5851 5855 5858 5862 5865 5868 5871 5874 5877 5879 5881 5882 5882 5882 5882 5881 5880 5880 5879 5878 5877 5876 5876 5875 5874 5872 5870 5868 5867 5866 5865 5864 5862 5861
5803 5809 5814 5817 5821 5825 5832 5835 5838 5843 5846 5850 5853 5857 5860 5863 5867 5870 5872 5874 5876 5877 5877 5878 5878 5877 5876 5876 5875 5874 5873 5873 5872 5871 5870 5869 5867 5866 5864 5863 5861 5860 5859 5857
5798 5803 5807 5811 5815 5820 5826 5829 5834 5838 5842 5845 5848 5852 5855 5858 5862 5865 5867 5869 5870 5871 5872 5873 5874 5873 5873 5872 5871 5871 5870 5869 5868 5867 5866 5865 5864 5862 5860 5859 5858 5857 5856 5855
5793 5798 5802 5806 5810 5817 5820 5824 5828 5832 5836 5840 5843 5847 5850 5853 5856 5858 5861 5863 5865 5866 5868 5869 5869 5869 5868 5868 5868 5867 5866 5865 5864 5863 5862 5861 5860 5859 5857 5856 5855 5854 5853 5851
5787 5793 5797 5802 5807 5810 5814 5818 5822 5826 5830 5834 5837 5841 5844 5847 5850 5852 5855 5857 5859 5861 5862 5863 5864 5864 5864 5864 5864 5863 5862 5861 5860 5859 5858 5857 5856 5855 5854 5853 5852 5851 5849 5848
5781 5786 5791 5796 5800 5804 5809 5813 5816 5820 5824 5828 5831 5835 5838 5841 5844 5847 5849 5852 5854 5856 5857 5858 5858 5859 5859 5859 5859 5859 5858 5857 5856 5855 5854 5853 5852 5851 5850 5849 5848 5847 5846 5844
5775 5780 5785 5789 5794 5799 5803 5807 5811 5815 5818 5822 5826 5829 5833 5836 5838 5841 5843 5846 5848 5850 5851 5852 5853 5853 5853 5854 5854 5854 5853 5853 5852 5851 5850 5849 5848 5847 5846 5845 5844 5843 5842 5840
5770 5775 5780 5784 5789 5793 5797 5801 5805 5809 5813 5816 5820 5823 5827 5830 5832 5835 5838 5840 5842 5844 5846 5847 5848 5848 5848 5848 5849 5849 5848 5848 5847 5847 5846 5845 5844 5843 5842 5841 5840 5839 5838 5836